,,Stat6,,Stat2,,Stat8,,Stat9,,Stat10,,Wind1,,Wind1,
time,status,PA1M_AVG,status,PR1M_SUM,status,RH1M_AVG,status,SR1M_AVG,status,TA1M_AVG,status,W1dAve1m,status,W1sAve1m,
2005-04-13, 00:00:00,VALID,920.094,VALID,0,VALID,96.4588,VALID,-0.0509425,VALID,21.9312,VALID,28,VALID,0.0421875,
2005-04-13, 00:01:00,VALID,920.075,VALID,0,VALID,96.3279,VALID,-0.0849042,VALID,21.9185,VALID,28,VALID,0,
2005-04-13, 00:02:00,VALID,920.06,VALID,0,VALID,96.3711,VALID,-0.0849042,VALID,21.9317,VALID,28,VALID,0,
2005-04-13, 00:03:00,VALID,920.05,VALID,0,VALID,96.4639,VALID,-0.0509425,VALID,21.9409,VALID,28,VALID,0.03125,
2005-04-13, 00:04:00,VALID,920.046,VALID,0,VALID,96.3647,VALID,-0.0679233,VALID,21.9605,VALID,28,VALID,0,
2005-04-13, 00:05:00,VALID,920.041,VALID,0,VALID,96.277,VALID,-0.0849042,VALID,21.9673,VALID,28,VALID,0.00109012,
2005-04-13, 00:06:00,VALID,920.039,VALID,0,VALID,96.2808,VALID,-0.0679233,VALID,21.9764,VALID,28,VALID,0,
2005-04-13, 00:07:00,VALID,920.031,VALID,0,VALID,96.1931,VALID,-0.0339617,VALID,21.9961,VALID,28,VALID,0,
2005-04-13, 00:08:00,VALID,920.038,VALID,0,VALID,96.1041,VALID,-0.0339617,VALID,22.0023,VALID,28,VALID,0,
2005-04-13, 00:09:00,VALID,920.042,VALID,0,VALID,95.9858,VALID,0,VALID,22.0052,VALID,28,VALID,0,
2005-04-13, 00:10:00,VALID,920.032,VALID,0,VALID,95.8078,VALID,-0.0339617,VALID,22.0149,VALID,28,VALID,0,
2005-04-13, 00:11:00,VALID,920.042,VALID,0,VALID,95.5649,VALID,-0.0849042,VALID,22.012,VALID,27,VALID,0.257813,
2005-04-13, 00:12:00,VALID,920.037,VALID,0,VALID,95.6285,VALID,-0.0339617,VALID,22.009,VALID,293,VALID,0.358132,
2005-04-13, 00:13:00,VALID,920.031,VALID,0,VALID,95.8294,VALID,-0.0169808,VALID,21.9923,VALID,194,VALID,0.430596,
2005-04-13, 00:14:00,VALID,920.031,VALID,0,VALID,95.9553,VALID,-0.0339617,VALID,21.9826,VALID,186,VALID,0.477983,
2005-04-13, 00:15:00,VALID,920.031,VALID,0,VALID,96.0875,VALID,-0.0509425,VALID,21.9635,VALID,186,VALID,0.316315,
2005-04-13, 00:16:00,VALID,920.031,VALID,0,VALID,96.2388,VALID,-0.0339617,VALID,21.9406,VALID,186,VALID,0.0257241,
2005-04-13, 00:17:00,VALID,920.015,VALID,0,VALID,96.3126,VALID,-0.0509425,VALID,21.9218,VALID,186,VALID,0.0601918,
2005-04-13, 00:18:00,VALID,920.008,VALID,0,VALID,96.4359,VALID,-0.0339617,VALID,21.9053,VALID,186,VALID,0.00240385,
2005-04-13, 00:19:00,VALID,919.979,VALID,0,VALID,96.4118,VALID,-0.0169808,VALID,21.8954,VALID,186,VALID,0.000190549,
2005-04-13, 00:20:00,VALID,919.963,VALID,0,VALID,96.4741,VALID,-0.0679233,VALID,21.886,VALID,186,VALID,0.0346236,
2005-04-13, 00:21:00,VALID,919.945,VALID,0,VALID,96.4805,VALID,-0.0509425,VALID,21.8992,VALID,186,VALID,0.452195,
2005-04-13, 00:22:00,VALID,919.913,VALID,0,VALID,96.5008,VALID,-0.0339617,VALID,21.9115,VALID,186,VALID,0.364826,
2005-04-13, 00:23:00,VALID,919.886,VALID,0,VALID,96.3113,VALID,-0.0339617,VALID,21.9344,VALID,186,VALID,0.139737,
2005-04-13, 00:24:00,VALID,919.862,VALID,0,VALID,96.1575,VALID,-0.0339617,VALID,21.9341,VALID,186,VALID,0.0234375,
2005-04-13, 00:25:00,VALID,919.826,VALID,0,VALID,96.0926,VALID,-0.0169808,VALID,21.925,VALID,186,VALID,0.0514915,
2005-04-13, 00:26:00,VALID,919.795,VALID,0,VALID,96.0379,VALID,-0.0509425,VALID,21.8628,VALID,186,VALID,0.117361,
2005-04-13, 00:27:00,VALID,919.757,VALID,0,VALID,96.2058,VALID,-0.0169808,VALID,21.8249,VALID,186,VALID,0.109738,
2005-04-13, 00:28:00,VALID,919.719,VALID,0,VALID,96.4309,VALID,-0.0679233,VALID,21.8093,VALID,186,VALID,0,
2005-04-13, 00:29:00,VALID,919.681,VALID,0,VALID,96.5555,VALID,-0.0679233,VALID,21.8093,VALID,186,VALID,0,
2005-04-13, 00:30:00,VALID,919.655,VALID,0,VALID,96.5567,VALID,-0.0339617,VALID,21.7928,VALID,186,VALID,0,
2005-04-13, 00:31:00,VALID,919.634,VALID,0,VALID,96.5059,VALID,0,VALID,21.7858,VALID,186,VALID,0,
2005-04-13, 00:32:00,VALID,919.622,VALID,0,VALID,96.5122,VALID,-0.0679233,VALID,21.7635,VALID,186,VALID,0,
2005-04-13, 00:33:00,VALID,919.618,VALID,0,VALID,96.5924,VALID,-0.0849042,VALID,21.7341,VALID,186,VALID,0,
2005-04-13, 00:34:00,VALID,919.604,VALID,0,VALID,96.717,VALID,-0.0339617,VALID,21.7083,VALID,186,VALID,0,
2005-04-13, 00:35:00,VALID,919.591,VALID,0,VALID,96.7691,VALID,-0.0679233,VALID,21.6927,VALID,186,VALID,0,
2005-04-13, 00:36:00,VALID,919.562,VALID,0,VALID,96.8441,VALID,-0.0509425,VALID,21.6736,VALID,186,VALID,0,
2005-04-13, 00:37:00,VALID,919.546,VALID,0,VALID,96.7259,VALID,-0.0509425,VALID,21.6539,VALID,186,VALID,0,
2005-04-13, 00:38:00,VALID,919.517,VALID,0,VALID,96.5695,VALID,-0.0339617,VALID,21.6149,VALID,186,VALID,0,
2005-04-13, 00:39:00,VALID,919.504,VALID,0,VALID,96.5224,VALID,-0.0679233,VALID,21.5826,VALID,186,VALID,0,
2005-04-13, 00:40:00,VALID,919.487,VALID,0,VALID,96.6979,VALID,-0.0679233,VALID,21.5538,VALID,186,VALID,0,
2005-04-13, 00:41:00,VALID,919.487,VALID,0,VALID,96.8556,VALID,-0.0679233,VALID,21.5508,VALID,186,VALID,0,
2005-04-13, 00:42:00,VALID,919.469,VALID,0,VALID,96.9891,VALID,-0.0169808,VALID,21.5468,VALID,186,VALID,0,
2005-04-13, 00:43:00,VALID,919.456,VALID,0,VALID,97.1633,VALID,-0.0679233,VALID,21.5638,VALID,186,VALID,0,
2005-04-13, 00:44:00,VALID,919.452,VALID,0,VALID,96.9166,VALID,-0.0169808,VALID,21.5444,VALID,186,VALID,0.0304878,
2005-04-13, 00:45:00,VALID,919.45,VALID,0,VALID,97.0247,VALID,-0.0339617,VALID,21.522,VALID,186,VALID,0.294922,
2005-04-13, 00:46:00,VALID,919.428,VALID,0,VALID,97.1862,VALID,-0.0679233,VALID,21.5059,VALID,186,VALID,0.198038,
2005-04-13, 00:47:00,VALID,919.44,VALID,0,VALID,97.3108,VALID,-0.0679233,VALID,21.4862,VALID,186,VALID,0.00902778,
2005-04-13, 00:48:00,VALID,919.411,VALID,0,VALID,97.4049,VALID,-0.0679233,VALID,21.4803,VALID,186,VALID,0.0145597,
2005-04-13, 00:49:00,VALID,919.402,VALID,0,VALID,97.5092,VALID,-0.0169808,VALID,21.4728,VALID,186,VALID,0,
2005-04-13, 00:50:00,VALID,919.372,VALID,0,VALID,97.5372,VALID,0.0509425,VALID,21.4553,VALID,186,VALID,0.00334821,
2005-04-13, 00:51:00,VALID,919.34,VALID,0,VALID,97.4354,VALID,0.0679233,VALID,21.452,VALID,186,VALID,0.0669643,
2005-04-13, 00:52:00,VALID,919.3,VALID,0,VALID,97.396,VALID,0.0339617,VALID,21.4526,VALID,186,VALID,0,
2005-04-13, 00:53:00,VALID,919.287,VALID,0,VALID,97.4901,VALID,0.0679233,VALID,21.4491,VALID,186,VALID,0.00114329,
2005-04-13, 00:54:00,VALID,919.258,VALID,0,VALID,97.6007,VALID,0.0849042,VALID,21.4553,VALID,186,VALID,0,
2005-04-13, 00:55:00,VALID,919.235,VALID,0,VALID,97.7749,VALID,0.0509425,VALID,21.4817,VALID,186,VALID,0.123047,
2005-04-13, 00:56:00,VALID,919.206,VALID,0,VALID,97.9237,VALID,0.0509425,VALID,21.5008,VALID,186,VALID,0.0803571,
2005-04-13, 00:57:00,VALID,919.178,VALID,0,VALID,97.9568,VALID,0.0339617,VALID,21.5336,VALID,186,VALID,0.0654762,
2005-04-13, 00:58:00,VALID,919.17,VALID,0,VALID,97.9034,VALID,0.0339617,VALID,21.5498,VALID,186,VALID,0.215799,
2005-04-13, 00:59:00,VALID,919.142,VALID,0,VALID,97.7915,VALID,0.0509425,VALID,21.5589,VALID,186,VALID,0.208891,
2005-04-13, 01:00:00,VALID,919.126,VALID,0,VALID,97.7419,VALID,0.0679233,VALID,21.5586,VALID,186,VALID,0.247656,
2005-04-13, 01:01:00,VALID,919.118,VALID,0,VALID,97.7851,VALID,0.0169808,VALID,21.5624,VALID,186,VALID,0.34096,
2005-04-13, 01:02:00,VALID,919.11,VALID,0,VALID,97.7152,VALID,0.0339617,VALID,21.5651,VALID,186,VALID,0.607244,
2005-04-13, 01:03:00,VALID,919.107,VALID,0,VALID,97.5219,VALID,0.0509425,VALID,21.5648,VALID,186,VALID,0.591406,
2005-04-13, 01:04:00,VALID,919.1,VALID,0,VALID,97.2714,VALID,0.0339617,VALID,21.5325,VALID,185,VALID,0.645279,
2005-04-13, 01:05:00,VALID,919.102,VALID,0,VALID,97.4532,VALID,0.0339617,VALID,21.5142,VALID,185,VALID,0.628452,
2005-04-13, 01:06:00,VALID,919.104,VALID,0,VALID,97.6071,VALID,0,VALID,21.4808,VALID,35,VALID,0.73165,
2005-04-13, 01:07:00,VALID,919.093,VALID,0,VALID,97.6363,VALID,0.0169808,VALID,21.4849,VALID,22,VALID,0.664063,
2005-04-13, 01:08:00,VALID,919.068,VALID,0,VALID,97.6847,VALID,0.0509425,VALID,21.4523,VALID,19,VALID,0.702009,
2005-04-13, 01:09:00,VALID,919.064,VALID,0,VALID,97.8462,VALID,0.0169808,VALID,21.427,VALID,12,VALID,0.715376,
2005-04-13, 01:10:00,VALID,919.038,VALID,0,VALID,97.9771,VALID,0.0169808,VALID,21.4015,VALID,9,VALID,0.920015,
2005-04-13, 01:11:00,VALID,919.02,VALID,0,VALID,98.1997,VALID,0.0339617,VALID,21.3587,VALID,4,VALID,0.630664,
2005-04-13, 01:12:00,VALID,918.988,VALID,0,VALID,98.2658,VALID,0,VALID,21.3495,VALID,353,VALID,0.640625,
2005-04-13, 01:13:00,VALID,918.973,VALID,0,VALID,98.323,VALID,0.0339617,VALID,21.321,VALID,343,VALID,0.939215,
2005-04-13, 01:14:00,VALID,918.934,VALID,0,VALID,98.4603,VALID,0,VALID,21.2852,VALID,337,VALID,0.904344,
2005-04-13, 01:15:00,VALID,918.911,VALID,0,VALID,98.632,VALID,0.0169808,VALID,21.2593,VALID,341,VALID,0.638021,
2005-04-13, 01:16:00,VALID,918.882,VALID,0,VALID,98.7643,VALID,0,VALID,21.2531,VALID,340,VALID,0.678385,
2005-04-13, 01:17:00,VALID,918.862,VALID,0,VALID,98.8723,VALID,0.0339617,VALID,21.233,VALID,345,VALID,0.530107,
2005-04-13, 01:18:00,VALID,918.849,VALID,0,VALID,98.9881,VALID,0.0169808,VALID,21.2394,VALID,338,VALID,0.435594,
2005-04-13, 01:19:00,VALID,918.831,VALID,0,VALID,99.0402,VALID,0,VALID,21.2464,VALID,324,VALID,0.416424,
2005-04-13, 01:20:00,VALID,918.82,VALID,0,VALID,99.1521,VALID,0,VALID,21.2497,VALID,329,VALID,0.560683,
2005-04-13, 01:21:00,VALID,918.813,VALID,0,VALID,99.2589,VALID,0.0169808,VALID,21.2758,VALID,354,VALID,0.316612,
2005-04-13, 01:22:00,VALID,918.796,VALID,0,VALID,99.2627,VALID,0,VALID,21.2981,VALID,354,VALID,0.140799,
2005-04-13, 01:23:00,VALID,918.796,VALID,0,VALID,99.1979,VALID,0,VALID,21.3075,VALID,354,VALID,0.372093,
2005-04-13, 01:24:00,VALID,918.768,VALID,0,VALID,99.2258,VALID,0,VALID,21.3307,VALID,7,VALID,0.406428,
2005-04-13, 01:25:00,VALID,918.758,VALID,0,VALID,99.175,VALID,0,VALID,21.3627,VALID,10,VALID,0.330171,
2005-04-13, 01:26:00,VALID,918.738,VALID,0,VALID,99.0745,VALID,0,VALID,21.3856,VALID,11,VALID,0.178977,
2005-04-13, 01:27:00,VALID,918.737,VALID,0,VALID,98.997,VALID,0,VALID,21.3918,VALID,11,VALID,0.574591,
2005-04-13, 01:28:00,VALID,918.717,VALID,0,VALID,98.9423,VALID,0.0169808,VALID,21.398,VALID,17,VALID,0.628997,
2005-04-13, 01:29:00,VALID,918.719,VALID,0,VALID,98.8825,VALID,0,VALID,21.4076,VALID,25,VALID,0.762674,
2005-04-13, 01:30:00,VALID,918.705,VALID,0,VALID,98.8876,VALID,0.0339617,VALID,21.4109,VALID,27,VALID,0.71254,
2005-04-13, 01:31:00,VALID,918.677,VALID,0,VALID,98.8444,VALID,0.0679233,VALID,21.43,VALID,27,VALID,0.627976,
2005-04-13, 01:32:00,VALID,918.664,VALID,0,VALID,98.7592,VALID,0.0169808,VALID,21.4467,VALID,24,VALID,0.438565,
2005-04-13, 01:33:00,VALID,918.645,VALID,0,VALID,98.7299,VALID,0.0679233,VALID,21.4373,VALID,24,VALID,0.251116,
2005-04-13, 01:34:00,VALID,918.63,VALID,0,VALID,98.7821,VALID,0,VALID,21.4367,VALID,24,VALID,0.419671,
2005-04-13, 01:35:00,VALID,918.604,VALID,0,VALID,98.7617,VALID,-0.0679233,VALID,21.4418,VALID,24,VALID,0.210565,
2005-04-13, 01:36:00,VALID,918.579,VALID,0,VALID,98.7287,VALID,-0.0509425,VALID,21.4513,VALID,24,VALID,0,
2005-04-13, 01:37:00,VALID,918.552,VALID,0,VALID,98.6651,VALID,-0.0169808,VALID,21.4647,VALID,24,VALID,0.13529,
2005-04-13, 01:38:00,VALID,918.535,VALID,0,VALID,98.6333,VALID,-0.0849042,VALID,21.4607,VALID,24,VALID,0.00078125,
2005-04-13, 01:39:00,VALID,918.511,VALID,0,VALID,98.5392,VALID,-0.0679233,VALID,21.458,VALID,24,VALID,0.000372024,
2005-04-13, 01:40:00,VALID,918.497,VALID,0,VALID,98.5252,VALID,-0.0679233,VALID,21.4577,VALID,24,VALID,0.000545058,
2005-04-13, 01:41:00,VALID,918.485,VALID,0,VALID,98.5557,VALID,-0.0849042,VALID,21.4577,VALID,24,VALID,0.224657,
2005-04-13, 01:42:00,VALID,918.461,VALID,0,VALID,98.4832,VALID,-0.0679233,VALID,21.4639,VALID,24,VALID,0.000177557,
2005-04-13, 01:43:00,VALID,918.445,VALID,0,VALID,98.4324,VALID,-0.0849042,VALID,21.4679,VALID,24,VALID,0.136083,
2005-04-13, 01:44:00,VALID,918.417,VALID,0,VALID,98.3548,VALID,-0.0849042,VALID,21.4644,VALID,24,VALID,0.168241,
2005-04-13, 01:45:00,VALID,918.39,VALID,0,VALID,98.323,VALID,-0.0849042,VALID,21.4609,VALID,24,VALID,0.0123547,
2005-04-13, 01:46:00,VALID,918.357,VALID,0,VALID,98.2976,VALID,-0.101885,VALID,21.4513,VALID,24,VALID,0.132635,
2005-04-13, 01:47:00,VALID,918.367,VALID,0,VALID,98.3624,VALID,-0.0849042,VALID,21.4348,VALID,24,VALID,0.0945122,
2005-04-13, 01:48:00,VALID,918.344,VALID,0,VALID,98.398,VALID,-0.0679233,VALID,21.4284,VALID,28,VALID,0.405523,
2005-04-13, 01:49:00,VALID,918.343,VALID,0,VALID,98.4464,VALID,-0.0679233,VALID,21.4189,VALID,45,VALID,0.211436,
2005-04-13, 01:50:00,VALID,918.321,VALID,0,VALID,98.3459,VALID,-0.0169808,VALID,21.4103,VALID,45,VALID,0.068314,
2005-04-13, 01:51:00,VALID,918.29,VALID,0,VALID,98.3179,VALID,0,VALID,21.4106,VALID,45,VALID,0.224657,
2005-04-13, 01:52:00,VALID,918.269,VALID,0,VALID,98.3688,VALID,0,VALID,21.388,VALID,45,VALID,0.0368304,
2005-04-13, 01:53:00,VALID,918.242,VALID,0,VALID,98.4692,VALID,0.0169808,VALID,21.3883,VALID,45,VALID,0.152699,
2005-04-13, 01:54:00,VALID,918.22,VALID,0,VALID,98.4807,VALID,0.0339617,VALID,21.3883,VALID,45,VALID,0.0841206,
2005-04-13, 01:55:00,VALID,918.197,VALID,0,VALID,98.3637,VALID,0.0169808,VALID,21.3786,VALID,45,VALID,0.286659,
2005-04-13, 01:56:00,VALID,918.191,VALID,0,VALID,98.3357,VALID,0.0339617,VALID,21.3788,VALID,45,VALID,0.134337,
2005-04-13, 01:57:00,VALID,918.188,VALID,0,VALID,98.2683,VALID,0.0169808,VALID,21.3686,VALID,31,VALID,0.219295,
2005-04-13, 01:58:00,VALID,918.198,VALID,0,VALID,98.2569,VALID,0,VALID,21.349,VALID,28,VALID,0.271034,
2005-04-13, 01:59:00,VALID,918.183,VALID,0,VALID,98.1488,VALID,0,VALID,21.3436,VALID,32,VALID,0.284028,
2005-04-13, 02:00:00,VALID,918.17,VALID,0,VALID,98.1246,VALID,0.0169808,VALID,21.3231,VALID,49,VALID,0.106707,
2005-04-13, 02:01:00,VALID,918.171,VALID,0,VALID,98.2276,VALID,0,VALID,21.3463,VALID,49,VALID,0.181944,
2005-04-13, 02:02:00,VALID,918.154,VALID,0,VALID,98.2137,VALID,0.0169808,VALID,21.3627,VALID,33,VALID,0.701265,
2005-04-13, 02:03:00,VALID,918.125,VALID,0,VALID,98.1653,VALID,0.0169808,VALID,21.3622,VALID,23,VALID,0.837391,
2005-04-13, 02:04:00,VALID,918.124,VALID,0,VALID,98.0789,VALID,0,VALID,21.3622,VALID,345,VALID,0.43099,
2005-04-13, 02:05:00,VALID,918.117,VALID,0,VALID,98.0979,VALID,0.0169808,VALID,21.3495,VALID,310,VALID,0.347996,
2005-04-13, 02:06:00,VALID,918.11,VALID,0,VALID,98.159,VALID,0,VALID,21.3565,VALID,326,VALID,0.235119,
2005-04-13, 02:07:00,VALID,918.114,VALID,0,VALID,98.2302,VALID,0.0169808,VALID,21.3498,VALID,338,VALID,0.248884,
2005-04-13, 02:08:00,VALID,918.097,VALID,0,VALID,98.0623,VALID,0,VALID,21.3274,VALID,9,VALID,0.46234,
2005-04-13, 02:09:00,VALID,918.103,VALID,0,VALID,98.1946,VALID,0,VALID,21.3272,VALID,31,VALID,0.429332,
2005-04-13, 02:10:00,VALID,918.092,VALID,0,VALID,98.1653,VALID,0,VALID,21.3202,VALID,29,VALID,0.797805,
2005-04-13, 02:11:00,VALID,918.089,VALID,0,VALID,98.2276,VALID,0,VALID,21.3204,VALID,21,VALID,0.773638,
2005-04-13, 02:12:00,VALID,918.098,VALID,0,VALID,98.2213,VALID,0.0169808,VALID,21.3237,VALID,16,VALID,0.203125,
2005-04-13, 02:13:00,VALID,918.096,VALID,0,VALID,98.1259,VALID,0,VALID,21.3204,VALID,359,VALID,0.0929687,
2005-04-13, 02:14:00,VALID,918.093,VALID,0,VALID,98.0712,VALID,-0.0169808,VALID,21.3105,VALID,1,VALID,0.553757,
2005-04-13, 02:15:00,VALID,918.084,VALID,0,VALID,97.8945,VALID,0,VALID,21.2785,VALID,26,VALID,0.674352,
2005-04-13, 02:16:00,VALID,918.081,VALID,0,VALID,98.0369,VALID,0.0169808,VALID,21.2491,VALID,26,VALID,0.81808,
2005-04-13, 02:17:00,VALID,918.059,VALID,0,VALID,98.1641,VALID,0.0169808,VALID,21.2397,VALID,25,VALID,0.44029,
2005-04-13, 02:18:00,VALID,918.05,VALID,0,VALID,98.178,VALID,0,VALID,21.2427,VALID,25,VALID,0.289249,
2005-04-13, 02:19:00,VALID,918.024,VALID,0,VALID,98.117,VALID,0,VALID,21.2464,VALID,25,VALID,0.245164,
2005-04-13, 02:20:00,VALID,918.005,VALID,0,VALID,98.262,VALID,0,VALID,21.2435,VALID,25,VALID,0.408975,
2005-04-13, 02:21:00,VALID,918.016,VALID,0,VALID,98.3701,VALID,0,VALID,21.2429,VALID,25,VALID,0.532393,
2005-04-13, 02:22:00,VALID,917.997,VALID,0,VALID,98.4591,VALID,0,VALID,21.2497,VALID,26,VALID,0.553779,
2005-04-13, 02:23:00,VALID,918.017,VALID,0,VALID,98.4781,VALID,0,VALID,21.2526,VALID,24,VALID,0.254261,
2005-04-13, 02:24:00,VALID,918.027,VALID,0,VALID,98.4642,VALID,0,VALID,21.2529,VALID,23,VALID,0.100291,
2005-04-13, 02:25:00,VALID,918.046,VALID,0,VALID,98.4959,VALID,0,VALID,21.2558,VALID,23,VALID,0.0492932,
2005-04-13, 02:26:00,VALID,918.053,VALID,0,VALID,98.4769,VALID,0,VALID,21.2787,VALID,23,VALID,0.046131,
2005-04-13, 02:27:00,VALID,918.058,VALID,0,VALID,98.468,VALID,0,VALID,21.2989,VALID,23,VALID,0,
2005-04-13, 02:28:00,VALID,918.071,VALID,0,VALID,98.3675,VALID,0,VALID,21.3081,VALID,23,VALID,0,
2005-04-13, 02:29:00,VALID,918.07,VALID,0,VALID,98.3357,VALID,0,VALID,21.311,VALID,23,VALID,0,
2005-04-13, 02:30:00,VALID,918.09,VALID,0,VALID,98.3243,VALID,0,VALID,21.321,VALID,23,VALID,0.00228659,
2005-04-13, 02:31:00,VALID,918.104,VALID,0,VALID,98.2442,VALID,0,VALID,21.3175,VALID,23,VALID,0.267773,
2005-04-13, 02:32:00,VALID,918.12,VALID,0,VALID,98.1882,VALID,0.0339617,VALID,21.3272,VALID,23,VALID,0.306641,
2005-04-13, 02:33:00,VALID,918.129,VALID,0,VALID,97.9288,VALID,0,VALID,21.3081,VALID,303,VALID,0.231399,
2005-04-13, 02:34:00,VALID,918.138,VALID,0,VALID,97.7457,VALID,0,VALID,21.2723,VALID,292,VALID,0.000381098,
2005-04-13, 02:35:00,VALID,918.139,VALID,0,VALID,97.7877,VALID,0.0339617,VALID,21.2688,VALID,259,VALID,0.294779,
2005-04-13, 02:36:00,VALID,918.146,VALID,0,VALID,97.9733,VALID,0,VALID,21.2588,VALID,201,VALID,0.527778,
2005-04-13, 02:37:00,VALID,918.153,VALID,0,VALID,98.1539,VALID,0.0169808,VALID,21.2682,VALID,218,VALID,0.09375,
2005-04-13, 02:38:00,VALID,918.159,VALID,0,VALID,98.1615,VALID,0.0339617,VALID,21.2879,VALID,16,VALID,0.503729,
2005-04-13, 02:39:00,VALID,918.166,VALID,0,VALID,98.075,VALID,0,VALID,21.2881,VALID,36,VALID,0.447798,
2005-04-13, 02:40:00,VALID,918.171,VALID,0,VALID,98.089,VALID,0,VALID,21.2916,VALID,33,VALID,0.0983232,
2005-04-13, 02:41:00,VALID,918.173,VALID,0,VALID,98.0801,VALID,0.0169808,VALID,21.2946,VALID,33,VALID,0.417614,
2005-04-13, 02:42:00,VALID,918.163,VALID,0,VALID,98.0318,VALID,0,VALID,21.3081,VALID,33,VALID,0.456364,
2005-04-13, 02:43:00,VALID,918.16,VALID,0,VALID,98.0623,VALID,0.0169808,VALID,21.314,VALID,32,VALID,0.749467,
2005-04-13, 02:44:00,VALID,918.174,VALID,0,VALID,97.9504,VALID,0.0169808,VALID,21.2946,VALID,30,VALID,0.745999,
2005-04-13, 02:45:00,VALID,918.165,VALID,0,VALID,98.0064,VALID,0.0339617,VALID,21.2951,VALID,30,VALID,0.674023,
2005-04-13, 02:46:00,VALID,918.165,VALID,0,VALID,98.1348,VALID,0.0169808,VALID,21.2717,VALID,30,VALID,0.385298,
2005-04-13, 02:47:00,VALID,918.163,VALID,0,VALID,98.0483,VALID,0.0679233,VALID,21.275,VALID,15,VALID,0.603849,
2005-04-13, 02:48:00,VALID,918.155,VALID,0,VALID,98.1145,VALID,0.0169808,VALID,21.2488,VALID,18,VALID,0.502083,
2005-04-13, 02:49:00,VALID,918.156,VALID,0,VALID,98.2327,VALID,0.0339617,VALID,21.2688,VALID,30,VALID,0.327947,
2005-04-13, 02:50:00,VALID,918.149,VALID,0,VALID,97.9771,VALID,0.0509425,VALID,21.2553,VALID,102,VALID,0.536577,
2005-04-13, 02:51:00,VALID,918.158,VALID,0,VALID,98.0687,VALID,0.0339617,VALID,21.2626,VALID,36,VALID,0.377668,
2005-04-13, 02:52:00,VALID,918.17,VALID,0,VALID,98.1361,VALID,0.0339617,VALID,21.2529,VALID,15,VALID,0.220486,
2005-04-13, 02:53:00,VALID,918.185,VALID,0,VALID,98.1234,VALID,0.0169808,VALID,21.2593,VALID,10,VALID,0.0259851,
2005-04-13, 02:54:00,VALID,918.2,VALID,0,VALID,97.9975,VALID,0.0169808,VALID,21.2497,VALID,18,VALID,0.283727,
2005-04-13, 02:55:00,VALID,918.223,VALID,0,VALID,97.9441,VALID,0.0509425,VALID,21.2435,VALID,188,VALID,0.355291,
2005-04-13, 02:56:00,VALID,918.23,VALID,0,VALID,97.8868,VALID,0.0169808,VALID,21.2268,VALID,188,VALID,0.0917039,
2005-04-13, 02:57:00,VALID,918.235,VALID,0,VALID,98.0165,VALID,0.0169808,VALID,21.2238,VALID,187,VALID,0.193859,
2005-04-13, 02:58:00,VALID,918.218,VALID,0,VALID,98.0509,VALID,0.0169808,VALID,21.2305,VALID,187,VALID,0.212713,
2005-04-13, 02:59:00,VALID,918.216,VALID,0,VALID,98.2022,VALID,0.0339617,VALID,21.2276,VALID,187,VALID,0.224964,
2005-04-13, 03:00:00,VALID,918.194,VALID,0,VALID,98.2162,VALID,0.0169808,VALID,21.2235,VALID,96,VALID,0.748197,
2005-04-13, 03:01:00,VALID,918.197,VALID,0,VALID,98.1094,VALID,0,VALID,21.2209,VALID,14,VALID,0.731597,
2005-04-13, 03:02:00,VALID,918.208,VALID,0,VALID,98.206,VALID,0.0339617,VALID,21.227,VALID,16,VALID,0.671196,
2005-04-13, 03:03:00,VALID,918.212,VALID,0,VALID,98.1157,VALID,0.0339617,VALID,21.2136,VALID,10,VALID,0.461682,
2005-04-13, 03:04:00,VALID,918.208,VALID,0,VALID,97.9555,VALID,0.0339617,VALID,21.2042,VALID,353,VALID,0.0272529,
2005-04-13, 03:05:00,VALID,918.202,VALID,0,VALID,97.8754,VALID,0.0339617,VALID,21.1915,VALID,360,VALID,0.381445,
2005-04-13, 03:06:00,VALID,918.196,VALID,0,VALID,97.911,VALID,0.0679233,VALID,21.1883,VALID,360,VALID,0.527071,
2005-04-13, 03:07:00,VALID,918.197,VALID,0,VALID,97.6351,VALID,0.0169808,VALID,21.1493,VALID,348,VALID,1.24237,
2005-04-13, 03:08:00,VALID,918.201,VALID,0,VALID,97.7228,VALID,0.0169808,VALID,21.124,VALID,15,VALID,0.779018,
2005-04-13, 03:09:00,VALID,918.196,VALID,0,VALID,97.8907,VALID,0,VALID,21.0984,VALID,359,VALID,0.935938,
2005-04-13, 03:10:00,VALID,918.21,VALID,0,VALID,97.9695,VALID,0.0169808,VALID,21.1006,VALID,16,VALID,1.09961,
2005-04-13, 03:11:00,VALID,918.218,VALID,0,VALID,98.0077,VALID,0.0169808,VALID,21.0855,VALID,20,VALID,1.02242,
2005-04-13, 03:12:00,VALID,918.203,VALID,0,VALID,98.2276,VALID,0,VALID,21.0685,VALID,18,VALID,0.65843,
2005-04-13, 03:13:00,VALID,918.185,VALID,0,VALID,98.2289,VALID,0.0339617,VALID,21.0658,VALID,17,VALID,0.597301,
2005-04-13, 03:14:00,VALID,918.151,VALID,0,VALID,98.2632,VALID,0.0339617,VALID,21.0365,VALID,22,VALID,0.744186,
2005-04-13, 03:15:00,VALID,918.128,VALID,0,VALID,98.3332,VALID,0,VALID,21.0303,VALID,23,VALID,0.899287,
2005-04-13, 03:16:00,VALID,918.123,VALID,0,VALID,98.3688,VALID,0.0339617,VALID,21.0241,VALID,23,VALID,0.998094,
2005-04-13, 03:17:00,VALID,918.115,VALID,0,VALID,98.3853,VALID,0.0339617,VALID,21.008,VALID,5,VALID,0.822674,
2005-04-13, 03:18:00,VALID,918.118,VALID,0,VALID,98.4184,VALID,0,VALID,20.9789,VALID,2,VALID,0.768229,
2005-04-13, 03:19:00,VALID,918.11,VALID,0,VALID,98.529,VALID,0,VALID,20.9558,VALID,17,VALID,0.783984,
2005-04-13, 03:20:00,VALID,918.109,VALID,0,VALID,98.6066,VALID,0.0169808,VALID,20.9428,VALID,12,VALID,0.801258,
2005-04-13, 03:21:00,VALID,918.12,VALID,0,VALID,98.5964,VALID,0.0169808,VALID,20.9299,VALID,13,VALID,0.634673,
2005-04-13, 03:22:00,VALID,918.115,VALID,0,VALID,98.6218,VALID,0,VALID,20.9205,VALID,8,VALID,0.673363,
2005-04-13, 03:23:00,VALID,918.112,VALID,0,VALID,98.6231,VALID,0,VALID,20.8917,VALID,329,VALID,0.748402,
2005-04-13, 03:24:00,VALID,918.126,VALID,0,VALID,98.735,VALID,0,VALID,20.8756,VALID,10,VALID,1.18293,
2005-04-13, 03:25:00,VALID,918.136,VALID,0,VALID,98.866,VALID,0,VALID,20.8495,VALID,20,VALID,0.832889,
2005-04-13, 03:26:00,VALID,918.145,VALID,0,VALID,98.9868,VALID,0,VALID,20.857,VALID,24,VALID,0.501999,
2005-04-13, 03:27:00,VALID,918.151,VALID,0,VALID,99.1127,VALID,0.0169808,VALID,20.8589,VALID,17,VALID,0.633575,
2005-04-13, 03:28:00,VALID,918.164,VALID,0,VALID,99.0529,VALID,0,VALID,20.8688,VALID,359,VALID,0.335938,
2005-04-13, 03:29:00,VALID,918.179,VALID,0,VALID,98.9537,VALID,0,VALID,20.8301,VALID,354,VALID,0.128089,
2005-04-13, 03:30:00,VALID,918.165,VALID,0,VALID,99.0122,VALID,0.0169808,VALID,20.8209,VALID,354,VALID,0,
2005-04-13, 03:31:00,VALID,918.163,VALID,0,VALID,99.1127,VALID,0.0169808,VALID,20.8271,VALID,354,VALID,0,
2005-04-13, 03:32:00,VALID,918.169,VALID,0,VALID,99.1394,VALID,-0.0169808,VALID,20.8398,VALID,346,VALID,0.153706,
2005-04-13, 03:33:00,VALID,918.163,VALID,0,VALID,99.1038,VALID,0,VALID,20.8535,VALID,343,VALID,0.0544922,
2005-04-13, 03:34:00,VALID,918.167,VALID,0,VALID,99.133,VALID,0,VALID,20.8559,VALID,343,VALID,0.0863186,
2005-04-13, 03:35:00,VALID,918.16,VALID,0,VALID,99.0326,VALID,0,VALID,20.8699,VALID,347,VALID,0.142113,